,,Stat6,,Stat2,,Stat8,,Stat9,,Stat10,,Wind1,,Wind1,
time,status,PA1M_AVG,status,PR1M_SUM,status,RH1M_AVG,status,SR1M_AVG,status,TA1M_AVG,status,W1dAve1m,status,W1sAve1m,
2007-01-09, 07:00:02,VALID,918.365,VALID,0,VALID,97.3312,VALID,-0.0169808,VALID,18.9523,VALID,279,VALID,0.594866,
2007-01-09, 07:01:00,VALID,918.346,VALID,0,VALID,96.9001,VALID,-0.0509425,VALID,18.9392,VALID,279,VALID,0.458891,
2007-01-09, 07:02:00,VALID,918.336,VALID,0,VALID,96.8301,VALID,-0.0169808,VALID,18.9002,VALID,279,VALID,0.646662,
2007-01-09, 07:03:00,VALID,918.31,VALID,0,VALID,96.9624,VALID,-0.0169808,VALID,18.894,VALID,279,VALID,0.669398,
2007-01-09, 07:04:00,VALID,918.295,VALID,0,VALID,96.7068,VALID,-0.0679233,VALID,18.8716,VALID,279,VALID,0.666921,
2007-01-09, 07:05:00,VALID,918.276,VALID,0,VALID,96.9052,VALID,-0.0679233,VALID,18.8423,VALID,279,VALID,0.692454,
2007-01-09, 07:06:00,VALID,918.271,VALID,0,VALID,97.0298,VALID,-0.0509425,VALID,18.8423,VALID,279,VALID,0.804688,
2007-01-09, 07:07:00,VALID,918.263,VALID,0,VALID,96.9611,VALID,-0.0679233,VALID,18.8105,VALID,279,VALID,0.691497,
2007-01-09, 07:08:01,VALID,918.241,VALID,0,VALID,97.0984,VALID,-0.0339617,VALID,18.8103,VALID,275,VALID,0.691311,
2007-01-09, 07:09:00,VALID,918.237,VALID,0,VALID,97.1862,VALID,-0.0339617,VALID,18.8071,VALID,275,VALID,0.660342,
2007-01-09, 07:10:00,VALID,918.216,VALID,0,VALID,97.3057,VALID,-0.0509425,VALID,18.823,VALID,275,VALID,0.602865,
2007-01-09, 07:11:00,VALID,918.22,VALID,0,VALID,97.1379,VALID,-0.0339617,VALID,18.8356,VALID,275,VALID,0.542783,
2007-01-09, 07:12:00,VALID,918.213,VALID,0,VALID,97.1315,VALID,-0.0509425,VALID,18.8356,VALID,264,VALID,0.59304,
2007-01-09, 07:13:00,VALID,918.217,VALID,0,VALID,96.8874,VALID,-0.0339617,VALID,18.8356,VALID,255,VALID,0.648615,
2007-01-09, 07:14:00,VALID,918.212,VALID,0,VALID,96.9535,VALID,-0.0509425,VALID,18.8359,VALID,258,VALID,0.728609,
2007-01-09, 07:15:00,VALID,918.215,VALID,0,VALID,96.8759,VALID,-0.0509425,VALID,18.8587,VALID,267,VALID,0.626143,
2007-01-09, 07:16:00,VALID,918.201,VALID,0,VALID,96.8734,VALID,-0.0679233,VALID,18.849,VALID,268,VALID,0.672053,
2007-01-09, 07:17:00,VALID,918.195,VALID,0,VALID,96.853,VALID,0.0169808,VALID,18.8578,VALID,270,VALID,0.681141,
2007-01-09, 07:18:00,VALID,918.187,VALID,0,VALID,96.8823,VALID,0,VALID,18.8769,VALID,270,VALID,0.753551,
2007-01-09, 07:19:01,VALID,918.182,VALID,0,VALID,96.6152,VALID,0.0339617,VALID,18.9089,VALID,269,VALID,0.704459,
2007-01-09, 07:20:01,VALID,918.174,VALID,0,VALID,96.3507,VALID,0.0169808,VALID,18.9412,VALID,270,VALID,0.794829,
2007-01-09, 07:21:01,VALID,918.173,VALID,0,VALID,96.113,VALID,0.101885,VALID,18.9732,VALID,277,VALID,0.709069,
2007-01-09, 07:22:00,VALID,918.182,VALID,0,VALID,95.5395,VALID,0.0679233,VALID,18.9924,VALID,279,VALID,0.611192,
2007-01-09, 07:23:00,VALID,918.181,VALID,0,VALID,95.1605,VALID,0.0679233,VALID,18.9698,VALID,279,VALID,0.587003,
2007-01-09, 07:24:01,VALID,918.175,VALID,0,VALID,95.1224,VALID,0.0509425,VALID,18.9472,VALID,279,VALID,0.725291,
2007-01-09, 07:25:00,VALID,918.165,VALID,0,VALID,95.0893,VALID,0.0849042,VALID,18.931,VALID,280,VALID,0.778201,
2007-01-09, 07:26:01,VALID,918.167,VALID,0,VALID,94.9062,VALID,0.0339617,VALID,18.896,VALID,282,VALID,0.789807,
2007-01-09, 07:27:01,VALID,918.163,VALID,0,VALID,94.9202,VALID,0.0509425,VALID,18.8347,VALID,282,VALID,0.625363,
2007-01-09, 07:28:00,VALID,918.169,VALID,0,VALID,95.247,VALID,0.0339617,VALID,18.796,VALID,282,VALID,0.660792,
2007-01-09, 07:29:00,VALID,918.148,VALID,0,VALID,95.5509,VALID,0.0509425,VALID,18.7893,VALID,277,VALID,0.740513,
2007-01-09, 07:30:00,VALID,918.134,VALID,0,VALID,95.7175,VALID,0.0169808,VALID,18.7831,VALID,278,VALID,0.776953,
2007-01-09, 07:31:00,VALID,918.126,VALID,0,VALID,95.5878,VALID,0.0339617,VALID,18.7764,VALID,279,VALID,0.645232,
2007-01-09, 07:32:01,VALID,918.116,VALID,0,VALID,95.3538,VALID,0.0169808,VALID,18.7252,VALID,279,VALID,0.678819,
2007-01-09, 07:33:00,VALID,918.12,VALID,0,VALID,95.4911,VALID,0.0169808,VALID,18.6971,VALID,279,VALID,0.509115,
2007-01-09, 07:34:01,VALID,918.102,VALID,0,VALID,95.6005,VALID,0.0169808,VALID,18.7036,VALID,279,VALID,0.41061,
2007-01-09, 07:35:00,VALID,918.091,VALID,0,VALID,95.514,VALID,0,VALID,18.7065,VALID,279,VALID,0.565625,
2007-01-09, 07:36:00,VALID,918.09,VALID,0,VALID,95.3258,VALID,0.0169808,VALID,18.7162,VALID,281,VALID,0.821378,
2007-01-09, 07:37:00,VALID,918.08,VALID,0,VALID,95.0003,VALID,0.0339617,VALID,18.7125,VALID,284,VALID,0.639353,
2007-01-09, 07:38:01,VALID,918.076,VALID,0,VALID,94.9393,VALID,0.0169808,VALID,18.684,VALID,292,VALID,0.578869,
2007-01-09, 07:39:00,VALID,918.074,VALID,0,VALID,95.1745,VALID,0,VALID,18.6554,VALID,305,VALID,0.611281,
2007-01-09, 07:40:00,VALID,918.071,VALID,0,VALID,95.3551,VALID,0.0169808,VALID,18.642,VALID,305,VALID,0.533612,
2007-01-09, 07:41:01,VALID,918.075,VALID,0,VALID,95.1834,VALID,0,VALID,18.6263,VALID,305,VALID,0.355469,
2007-01-09, 07:42:00,VALID,918.075,VALID,0,VALID,95.1491,VALID,0,VALID,18.5775,VALID,305,VALID,0.249818,
2007-01-09, 07:43:00,VALID,918.059,VALID,0,VALID,95.598,VALID,0,VALID,18.5715,VALID,305,VALID,0.291109,
2007-01-09, 07:44:01,VALID,918.054,VALID,0,VALID,95.6298,VALID,0,VALID,18.5521,VALID,305,VALID,0.290879,
2007-01-09, 07:45:00,VALID,918.048,VALID,0,VALID,95.5636,VALID,0,VALID,18.5325,VALID,305,VALID,0.00509511,
2007-01-09, 07:46:00,VALID,918.043,VALID,0,VALID,95.5293,VALID,0,VALID,18.5069,VALID,305,VALID,0,
2007-01-09, 07:47:01,VALID,918.032,VALID,0,VALID,95.7366,VALID,-0.0169808,VALID,18.5067,VALID,289,VALID,0.137355,
2007-01-09, 07:48:00,VALID,918.013,VALID,0,VALID,95.6908,VALID,-0.0339617,VALID,18.5459,VALID,274,VALID,0.0213914,
2007-01-09, 07:49:00,VALID,917.999,VALID,0,VALID,95.5382,VALID,-0.0339617,VALID,18.5618,VALID,274,VALID,0.0697674,
2007-01-09, 07:50:01,VALID,917.98,VALID,0,VALID,95.4822,VALID,-0.0169808,VALID,18.5717,VALID,274,VALID,0.0779433,
2007-01-09, 07:51:01,VALID,917.961,VALID,0,VALID,95.3881,VALID,-0.0169808,VALID,18.5908,VALID,274,VALID,0,
2007-01-09, 07:52:00,VALID,917.943,VALID,0,VALID,95.2673,VALID,-0.0169808,VALID,18.61,VALID,274,VALID,0.23125,
2007-01-09, 07:53:00,VALID,917.943,VALID,0,VALID,95.0537,VALID,-0.0169808,VALID,18.613,VALID,274,VALID,0.402158,
2007-01-09, 07:54:00,VALID,917.93,VALID,0,VALID,94.8897,VALID,0,VALID,18.5938,VALID,274,VALID,0.3125,
2007-01-09, 07:55:01,VALID,917.925,VALID,0,VALID,94.9494,VALID,0,VALID,18.5295,VALID,274,VALID,0.0625,
2007-01-09, 07:56:01,VALID,917.924,VALID,0,VALID,95.0563,VALID,0.0169808,VALID,18.4876,VALID,274,VALID,0.141768,
2007-01-09, 07:57:00,VALID,917.93,VALID,0,VALID,95.2686,VALID,0,VALID,18.4225,VALID,274,VALID,0.335582,
2007-01-09, 07:58:00,VALID,917.933,VALID,0,VALID,95.5484,VALID,0,VALID,18.3681,VALID,274,VALID,0.415305,
2007-01-09, 07:59:00,VALID,917.919,VALID,0,VALID,95.823,VALID,0,VALID,18.3034,VALID,274,VALID,0.37609,
2007-01-09, 08:00:01,VALID,917.92,VALID,0,VALID,95.851,VALID,0,VALID,18.2425,VALID,274,VALID,0.401972,
2007-01-09, 08:01:01,VALID,917.912,VALID,0,VALID,95.9082,VALID,0,VALID,18.1517,VALID,327,VALID,0.486555,
2007-01-09, 08:02:01,VALID,917.884,VALID,0,VALID,96.1829,VALID,-0.0339617,VALID,18.0782,VALID,329,VALID,0.339489,
2007-01-09, 08:03:01,VALID,917.875,VALID,0,VALID,96.4169,VALID,-0.0169808,VALID,17.994,VALID,329,VALID,0.146151,
2007-01-09, 08:04:00,VALID,917.862,VALID,0,VALID,96.6102,VALID,-0.0169808,VALID,17.9325,VALID,329,VALID,0.456854,
2007-01-09, 08:05:00,VALID,917.852,VALID,0,VALID,97.2663,VALID,0,VALID,17.9069,VALID,351,VALID,0.664789,
2007-01-09, 08:06:00,VALID,917.828,VALID,0,VALID,97.7724,VALID,-0.0509425,VALID,17.8908,VALID,14,VALID,0.604167,
2007-01-09, 08:07:01,VALID,917.812,VALID,0,VALID,98.983,VALID,0,VALID,17.9422,VALID,14,VALID,0.77504,
2007-01-09, 08:08:01,VALID,917.778,VALID,0,VALID,99.6035,VALID,0,VALID,18.0519,VALID,14,VALID,0.884084,
2007-01-09, 08:09:01,VALID,917.756,VALID,0,VALID,99.1381,VALID,-0.0339617,VALID,18.1199,VALID,9,VALID,0.99858,
2007-01-09, 08:10:01,VALID,917.726,VALID,0,VALID,98.173,VALID,0,VALID,18.0906,VALID,356,VALID,0.895579,
2007-01-09, 08:11:01,VALID,917.697,VALID,0,VALID,98.674,VALID,0.0169808,VALID,18.1333,VALID,356,VALID,0.98125,
2007-01-09, 08:12:01,VALID,917.668,VALID,0,VALID,98.4108,VALID,0,VALID,18.1644,VALID,355,VALID,0.876065,
2007-01-09, 08:13:00,VALID,917.657,VALID,0,VALID,98.2378,VALID,0.0169808,VALID,18.1837,VALID,359,VALID,0.914971,
2007-01-09, 08:14:01,VALID,917.64,VALID,0,VALID,98.2963,VALID,-0.0169808,VALID,18.178,VALID,6,VALID,1.09487,
2007-01-09, 08:15:01,VALID,917.632,VALID,0,VALID,98.3357,VALID,0,VALID,18.1326,VALID,13,VALID,1.16836,
2007-01-09, 08:16:01,VALID,917.624,VALID,0,VALID,98.7973,VALID,0,VALID,18.0973,VALID,13,VALID,1.36254,
2007-01-09, 08:17:00,VALID,917.616,VALID,0,VALID,99.1241,VALID,0,VALID,18.0715,VALID,15,VALID,1.32734,
2007-01-09, 08:18:01,VALID,917.598,VALID,0,VALID,99.1763,VALID,-0.0169808,VALID,18.0166,VALID,17,VALID,1.33477,
2007-01-09, 08:19:00,VALID,917.591,VALID,0,VALID,99.3975,VALID,0,VALID,17.9809,VALID,21,VALID,1.31463,
2007-01-09, 08:20:01,VALID,917.575,VALID,0,VALID,99.4713,VALID,0,VALID,17.9553,VALID,24,VALID,1.26635,
2007-01-09, 08:21:01,VALID,917.576,VALID,0,VALID,99.6658,VALID,0.0169808,VALID,17.9433,VALID,26,VALID,1.25,
2007-01-09, 08:22:01,VALID,917.562,VALID,0,VALID,99.6213,VALID,0,VALID,17.9035,VALID,45,VALID,0.833079,
2007-01-09, 08:23:01,VALID,917.57,VALID,0,VALID,99.4408,VALID,0,VALID,17.862,VALID,45,VALID,0.868459,
2007-01-09, 08:24:00,VALID,917.561,VALID,0,VALID,99.5476,VALID,0,VALID,17.823,VALID,45,VALID,0.876698,
2007-01-09, 08:25:01,VALID,917.56,VALID,0,VALID,99.6061,VALID,-0.0339617,VALID,17.7458,VALID,51,VALID,0.876758,
2007-01-09, 08:26:01,VALID,917.539,VALID,0,VALID,99.7688,VALID,-0.0509425,VALID,17.6746,VALID,50,VALID,0.927827,
2007-01-09, 08:27:01,VALID,917.527,VALID,0,VALID,99.9702,VALID,-0.0169808,VALID,17.6041,VALID,39,VALID,1.13247,
2007-01-09, 08:28:01,VALID,917.523,VALID,0,VALID,100,VALID,-0.0169808,VALID,17.552,VALID,36,VALID,1.33041,
2007-01-09, 08:29:01,VALID,917.519,VALID,0,VALID,100,VALID,-0.0169808,VALID,17.5172,VALID,37,VALID,1.24419,
2007-01-09, 08:30:01,VALID,917.518,VALID,0,VALID,100,VALID,0,VALID,17.4976,VALID,36,VALID,1.13681,
2007-01-09, 08:31:01,VALID,917.509,VALID,0,VALID,100,VALID,-0.0169808,VALID,17.4941,VALID,30,VALID,0.822027,
2007-01-09, 08:32:01,VALID,917.5,VALID,0,VALID,100,VALID,0,VALID,17.4713,VALID,29,VALID,0.714844,
2007-01-09, 08:33:01,VALID,917.495,VALID,0,VALID,100,VALID,-0.0339617,VALID,17.4787,VALID,30,VALID,0.603981,
2007-01-09, 08:34:01,VALID,917.475,VALID,0,VALID,100,VALID,-0.0509425,VALID,17.4782,VALID,26,VALID,0.79154,
2007-01-09, 08:35:01,VALID,917.473,VALID,0,VALID,100,VALID,0,VALID,17.5109,VALID,15,VALID,0.752232,
2007-01-09, 08:36:01,VALID,917.463,VALID,0,VALID,100,VALID,-0.0339617,VALID,17.5169,VALID,13,VALID,0.591844,
2007-01-09, 08:37:01,VALID,917.456,VALID,0,VALID,100,VALID,0,VALID,17.5103,VALID,13,VALID,0.658482,
2007-01-09, 08:38:01,VALID,917.456,VALID,0,VALID,100,VALID,-0.0509425,VALID,17.5107,VALID,13,VALID,0.508333,
2007-01-09, 08:39:01,VALID,917.441,VALID,0,VALID,100,VALID,-0.0339617,VALID,17.4944,VALID,16,VALID,0.852493,
2007-01-09, 08:40:01,VALID,917.428,VALID,0,VALID,100,VALID,-0.0339617,VALID,17.4651,VALID,27,VALID,0.938388,
2007-01-09, 08:41:01,VALID,917.42,VALID,0,VALID,100,VALID,0,VALID,17.5204,VALID,27,VALID,1.00089,
2007-01-09, 08:42:01,VALID,917.409,VALID,0,VALID,100,VALID,-0.0169808,VALID,17.5395,VALID,27,VALID,0.920573,
2007-01-09, 08:43:01,VALID,917.409,VALID,0,VALID,100,VALID,0,VALID,17.5455,VALID,28,VALID,0.851207,
2007-01-09, 08:44:01,VALID,917.398,VALID,0,VALID,100,VALID,-0.0339617,VALID,17.5527,VALID,28,VALID,0.505208,
2007-01-09, 08:45:01,VALID,917.392,VALID,0,VALID,100,VALID,0,VALID,17.5066,VALID,28,VALID,0.927557,
2007-01-09, 08:46:01,VALID,917.39,VALID,0,VALID,100,VALID,-0.0169808,VALID,17.5268,VALID,29,VALID,0.632813,
2007-01-09, 08:47:01,VALID,917.387,VALID,0,VALID,100,VALID,-0.0339617,VALID,17.5398,VALID,35,VALID,0.749273,
2007-01-09, 08:48:01,VALID,917.384,VALID,0,VALID,100,VALID,-0.0339617,VALID,17.5626,VALID,35,VALID,0.786644,
2007-01-09, 08:49:01,VALID,917.378,VALID,0,VALID,100,VALID,-0.0509425,VALID,17.5524,VALID,35,VALID,0.775112,
2007-01-09, 08:50:01,VALID,917.358,VALID,0,VALID,100,VALID,-0.0169808,VALID,17.5626,VALID,35,VALID,0.755149,
2007-01-09, 08:51:01,VALID,917.348,VALID,0,VALID,100,VALID,0,VALID,17.5232,VALID,35,VALID,0.568229,
2007-01-09, 08:52:01,VALID,917.338,VALID,0,VALID,100,VALID,-0.0509425,VALID,17.5075,VALID,35,VALID,0.705124,
2007-01-09, 08:53:01,VALID,917.349,VALID,0,VALID,100,VALID,0,VALID,17.4851,VALID,33,VALID,0.842262,
2007-01-09, 08:54:00,VALID,917.335,VALID,0,VALID,100,VALID,-0.0339617,VALID,17.4782,VALID,34,VALID,0.685764,
2007-01-09, 08:55:00,VALID,917.327,VALID,0,VALID,100,VALID,-0.0339617,VALID,17.4849,VALID,36,VALID,0.847561,
2007-01-09, 08:56:00,VALID,917.321,VALID,0,VALID,100,VALID,-0.0169808,VALID,17.4716,VALID,36,VALID,0.932736,
2007-01-09, 08:57:00,VALID,917.318,VALID,0,VALID,100,VALID,-0.0339617,VALID,17.5045,VALID,38,VALID,0.947731,
2007-01-09, 08:58:00,VALID,917.312,VALID,0,VALID,100,VALID,0,VALID,17.5275,VALID,36,VALID,0.838477,
2007-01-09, 08:59:00,VALID,917.313,VALID,0,VALID,100,VALID,-0.0509425,VALID,17.5367,VALID,36,VALID,0.823475,
2007-01-09, 09:00:00,VALID,917.288,VALID,0,VALID,100,VALID,0,VALID,17.5036,VALID,30,VALID,0.838118,
2007-01-09, 09:01:00,VALID,917.29,VALID,0,VALID,100,VALID,-0.0169808,VALID,17.5075,VALID,28,VALID,0.829397,
2007-01-09, 09:02:00,VALID,917.273,VALID,0,VALID,100,VALID,0,VALID,17.4905,VALID,28,VALID,0.401105,
2007-01-09, 09:03:00,VALID,917.256,VALID,0,VALID,100,VALID,0,VALID,17.4881,VALID,30,VALID,0.632999,
2007-01-09, 09:04:00,VALID,917.241,VALID,0,VALID,100,VALID,-0.0169808,VALID,17.4748,VALID,32,VALID,0.758345,
2007-01-09, 09:05:00,VALID,917.232,VALID,0,VALID,100,VALID,0,VALID,17.4591,VALID,30,VALID,0.800781,
2007-01-09, 09:06:00,VALID,917.215,VALID,0,VALID,100,VALID,-0.0679233,VALID,17.4296,VALID,27,VALID,0.703125,
2007-01-09, 09:07:00,VALID,917.201,VALID,0,VALID,100,VALID,-0.0169808,VALID,17.4109,VALID,9,VALID,0.934524,
2007-01-09, 09:08:00,VALID,917.182,VALID,0,VALID,100,VALID,-0.0169808,VALID,17.4171,VALID,8,VALID,1.16311,
2007-01-09, 09:09:00,VALID,917.176,VALID,0,VALID,100,VALID,0,VALID,17.4397,VALID,19,VALID,1.44039,
2007-01-09, 09:10:00,VALID,917.158,VALID,0,VALID,100,VALID,-0.0169808,VALID,17.4625,VALID,18,VALID,1.42743,
2007-01-09, 09:11:00,VALID,917.149,VALID,0,VALID,100,VALID,0,VALID,17.4881,VALID,24,VALID,1.4213,
2007-01-09, 09:12:00,VALID,917.154,VALID,0,VALID,100,VALID,-0.0679233,VALID,17.5077,VALID,23,VALID,1.2381,
2007-01-09, 09:13:00,VALID,917.143,VALID,0,VALID,100,VALID,-0.0169808,VALID,17.5236,VALID,24,VALID,1.03144,
2007-01-09, 09:14:00,VALID,917.125,VALID,0,VALID,100,VALID,0,VALID,17.5236,VALID,20,VALID,1.19531,
2007-01-09, 09:15:00,VALID,917.11,VALID,0,VALID,100,VALID,0,VALID,17.5204,VALID,20,VALID,1.24982,
2007-01-09, 09:16:00,VALID,917.103,VALID,0,VALID,100,VALID,0,VALID,17.5305,VALID,22,VALID,1.20422,
2007-01-09, 09:17:00,VALID,917.087,VALID,0,VALID,100,VALID,-0.0509425,VALID,17.5204,VALID,23,VALID,1.17315,
2007-01-09, 09:18:00,VALID,917.071,VALID,0,VALID,100,VALID,-0.0169808,VALID,17.5206,VALID,20,VALID,1.29124,
2007-01-09, 09:19:00,VALID,917.057,VALID,0,VALID,100,VALID,-0.0169808,VALID,17.5204,VALID,27,VALID,1.01308,
2007-01-09, 09:20:00,VALID,917.053,VALID,0,VALID,100,VALID,0,VALID,17.5208,VALID,27,VALID,1.09757,
2007-01-09, 09:21:00,VALID,917.043,VALID,0,VALID,100,VALID,0,VALID,17.5112,VALID,22,VALID,1.22897,
2007-01-09, 09:22:00,VALID,917.042,VALID,0,VALID,100,VALID,0,VALID,17.4886,VALID,29,VALID,1.19066,
2007-01-09, 09:23:00,VALID,917.03,VALID,0,VALID,100,VALID,0,VALID,17.443,VALID,26,VALID,0.932664,
2007-01-09, 09:24:00,VALID,917.04,VALID,0,VALID,100,VALID,-0.0509425,VALID,17.4275,VALID,22,VALID,1.16497,
2007-01-09, 09:25:00,VALID,917.048,VALID,0,VALID,100,VALID,-0.0509425,VALID,17.3851,VALID,12,VALID,1.14879,
2007-01-09, 09:26:00,VALID,917.043,VALID,0,VALID,100,VALID,-0.0169808,VALID,17.3468,VALID,16,VALID,1.23535,
2007-01-09, 09:27:00,VALID,917.028,VALID,0,VALID,100,VALID,-0.0339617,VALID,17.2883,VALID,13,VALID,1.3626,
2007-01-09, 09:28:00,VALID,917.03,VALID,0,VALID,100,VALID,-0.0679233,VALID,17.2657,VALID,14,VALID,1.20668,
2007-01-09, 09:29:00,VALID,917.021,VALID,0,VALID,100,VALID,-0.0509425,VALID,17.2431,VALID,14,VALID,1.17898,
2007-01-09, 09:30:00,VALID,917.012,VALID,0,VALID,100,VALID,-0.0339617,VALID,17.2238,VALID,18,VALID,1.41387,
2007-01-09, 09:31:00,VALID,917.006,VALID,0,VALID,100,VALID,-0.0509425,VALID,17.2203,VALID,21,VALID,1.31555,
2007-01-09, 09:32:00,VALID,916.998,VALID,0,VALID,100,VALID,-0.0509425,VALID,17.2268,VALID,18,VALID,1.15792,
2007-01-09, 09:33:00,VALID,916.977,VALID,0,VALID,100,VALID,0,VALID,17.2238,VALID,20,VALID,1.55488,
2007-01-09, 09:34:00,VALID,916.979,VALID,0,VALID,100,VALID,-0.0339617,VALID,17.25,VALID,28,VALID,1.49107,
2007-01-09, 09:35:00,VALID,916.964,VALID,0,VALID,100,VALID,-0.0509425,VALID,17.2752,VALID,27,VALID,1.47117,
2007-01-09, 09:36:00,VALID,916.96,VALID,0,VALID,100,VALID,-0.0169808,VALID,17.3146,VALID,29,VALID,1.36846,
2007-01-09, 09:37:00,VALID,916.956,VALID,0,VALID,100,VALID,-0.0509425,VALID,17.3371,VALID,22,VALID,1.43108,
2007-01-09, 09:38:00,VALID,916.956,VALID,0,VALID,100,VALID,-0.0509425,VALID,17.3436,VALID,22,VALID,1.22917,
2007-01-09, 09:39:00,VALID,916.947,VALID,0,VALID,100,VALID,-0.0509425,VALID,17.366,VALID,22,VALID,1.39358,
2007-01-09, 09:40:00,VALID,916.948,VALID,0,VALID,100,VALID,-0.0679233,VALID,17.3696,VALID,25,VALID,1.34375,
2007-01-09, 09:41:00,VALID,916.925,VALID,0,VALID,99.9626,VALID,-0.0679233,VALID,17.3692,VALID,25,VALID,1.27042,
2007-01-09, 09:42:00,VALID,916.918,VALID,0,VALID,99.7866,VALID,-0.0509425,VALID,17.3563,VALID,25,VALID,1.11009,
2007-01-09, 09:43:00,VALID,916.913,VALID,0,VALID,99.5895,VALID,-0.0169808,VALID,17.3498,VALID,17,VALID,1.37038,
2007-01-09, 09:44:00,VALID,916.907,VALID,0,VALID,99.4153,VALID,-0.0169808,VALID,17.321,VALID,15,VALID,1.39968,
2007-01-09, 09:45:00,VALID,916.886,VALID,0,VALID,99.3377,VALID,-0.0509425,VALID,17.3376,VALID,22,VALID,1.38502,
2007-01-09, 09:46:00,VALID,916.894,VALID,0,VALID,99.1915,VALID,-0.0679233,VALID,17.3115,VALID,27,VALID,1.56734,
2007-01-09, 09:47:00,VALID,916.895,VALID,0,VALID,99.0809,VALID,0.0169808,VALID,17.2973,VALID,26,VALID,1.62355,
2007-01-09, 09:48:00,VALID,916.897,VALID,0,VALID,98.8927,VALID,0.0509425,VALID,17.3167,VALID,26,VALID,1.57066,
2007-01-09, 09:49:00,VALID,916.901,VALID,0,VALID,98.7134,VALID,0.0509425,VALID,17.3031,VALID,22,VALID,1.51925,
2007-01-09, 09:50:00,VALID,916.902,VALID,0,VALID,98.4807,VALID,0.0169808,VALID,17.3165,VALID,19,VALID,1.34197,
2007-01-09, 09:51:00,VALID,916.898,VALID,0,VALID,98.3955,VALID,0.0509425,VALID,17.3102,VALID,22,VALID,1.39958,
2007-01-09, 09:52:00,VALID,916.902,VALID,0,VALID,98.3383,VALID,0.0339617,VALID,17.3038,VALID,18,VALID,1.28579,
2007-01-09, 09:53:00,VALID,916.891,VALID,0,VALID,98.44,VALID,0.0509425,VALID,17.2679,VALID,21,VALID,1.30414,
2007-01-09, 09:54:00,VALID,916.873,VALID,0,VALID,98.4909,VALID,0.0339617,VALID,17.2679,VALID,20,VALID,1.38372,
2007-01-09, 09:55:00,VALID,916.859,VALID,0,VALID,98.6333,VALID,0.0339617,VALID,17.2616,VALID,16,VALID,1.49893,
2007-01-09, 09:56:00,VALID,916.837,VALID,0,VALID,98.6473,VALID,0.0339617,VALID,17.2685,VALID,23,VALID,1.44271,
2007-01-09, 09:57:00,VALID,916.837,VALID,0,VALID,98.5951,VALID,0.0509425,VALID,17.2586,VALID,21,VALID,1.42205,
2007-01-09, 09:58:00,VALID,916.838,VALID,0,VALID,98.6587,VALID,0.0339617,VALID,17.2356,VALID,19,VALID,1.39974,
2007-01-09, 09:59:00,VALID,916.81,VALID,0,VALID,98.5341,VALID,0.0339617,VALID,17.2197,VALID,18,VALID,1.38636,
2007-01-09, 10:00:00,VALID,916.822,VALID,0,VALID,98.3256,VALID,0.0339617,VALID,17.2036,VALID,18,VALID,1.38881,
2007-01-09, 10:01:00,VALID,916.829,VALID,0,VALID,98.0649,VALID,0.0339617,VALID,17.1973,VALID,19,VALID,1.43041,
2007-01-09, 10:02:00,VALID,916.833,VALID,0,VALID,97.8118,VALID,-0.0339617,VALID,17.2016,VALID,20,VALID,1.27734,
2007-01-09, 10:03:00,VALID,916.827,VALID,0,VALID,97.574,VALID,0,VALID,17.2083,VALID,11,VALID,1.37845,
2007-01-09, 10:04:00,VALID,916.835,VALID,0,VALID,97.3375,VALID,-0.0339617,VALID,17.2016,VALID,11,VALID,1.30208,
2007-01-09, 10:05:00,VALID,916.828,VALID,0,VALID,97.1582,VALID,-0.0849042,VALID,17.1889,VALID,28,VALID,1.27877,
2007-01-09, 10:06:00,VALID,916.827,VALID,0,VALID,97.0539,VALID,-0.0169808,VALID,17.1889,VALID,20,VALID,1.3995,
2007-01-09, 10:07:00,VALID,916.82,VALID,0,VALID,96.97,VALID,-0.0509425,VALID,17.1823,VALID,21,VALID,1.36181,
2007-01-09, 10:08:00,VALID,916.819,VALID,0,VALID,96.9077,VALID,-0.0679233,VALID,17.2053,VALID,16,VALID,1.49777,
2007-01-09, 10:09:00,VALID,916.823,VALID,0,VALID,96.6966,VALID,-0.0509425,VALID,17.2113,VALID,18,VALID,1.33203,
2007-01-09, 10:10:00,VALID,916.822,VALID,0,VALID,96.6254,VALID,-0.0339617,VALID,17.2178,VALID,15,VALID,1.35665,
2007-01-09, 10:11:00,VALID,916.815,VALID,0,VALID,96.6559,VALID,-0.0509425,VALID,17.2242,VALID,20,VALID,1.35689,
2007-01-09, 10:12:00,VALID,916.808,VALID,0,VALID,96.7945,VALID,-0.0509425,VALID,17.2244,VALID,16,VALID,1.37024,
2007-01-09, 10:13:00,VALID,916.822,VALID,0,VALID,97.0133,VALID,-0.0339617,VALID,17.221,VALID,9,VALID,1.39082,
2007-01-09, 10:14:00,VALID,916.811,VALID,0,VALID,97.2943,VALID,-0.0679233,VALID,17.2472,VALID,8,VALID,1.33679,
2007-01-09, 10:15:00,VALID,916.808,VALID,0,VALID,97.3261,VALID,-0.0339617,VALID,17.224,VALID,3,VALID,1.16883,
2007-01-09, 10:16:00,VALID,916.799,VALID,0,VALID,97.4011,VALID,-0.0509425,VALID,17.2247,VALID,7,VALID,1.09375,
2007-01-09, 10:17:00,VALID,916.788,VALID,0,VALID,97.663,VALID,0.0339617,VALID,17.2201,VALID,14,VALID,1.35785,
2007-01-09, 10:18:00,VALID,916.799,VALID,0,VALID,97.7254,VALID,0.101885,VALID,17.2066,VALID,22,VALID,1.39135,
2007-01-09, 10:19:00,VALID,916.804,VALID,0,VALID,97.9517,VALID,0.0849042,VALID,17.1993,VALID,19,VALID,1.40589,
2007-01-09, 10:20:00,VALID,916.795,VALID,0,VALID,97.9212,VALID,0.101885,VALID,17.2031,VALID,23,VALID,1.14082,
2007-01-09, 10:21:00,VALID,916.785,VALID,0,VALID,97.7635,VALID,0.0849042,VALID,17.2124,VALID,24,VALID,0.581836,
2007-01-09, 10:22:00,VALID,916.792,VALID,0,VALID,97.6185,VALID,0.101885,VALID,17.19,VALID,23,VALID,0.582386,
2007-01-09, 10:23:00,VALID,916.779,VALID,0,VALID,97.5384,VALID,0.118866,VALID,17.1644,VALID,23,VALID,0.581555,
2007-01-09, 10:24:00,VALID,916.774,VALID,0,VALID,97.5689,VALID,0.0849042,VALID,17.1255,VALID,23,VALID,0.742188,
2007-01-09, 10:25:00,VALID,916.772,VALID,0,VALID,97.6491,VALID,0.135847,VALID,17.1388,VALID,23,VALID,0.790968,
2007-01-09, 10:26:00,VALID,916.766,VALID,0,VALID,97.6224,VALID,0.101885,VALID,17.1317,VALID,18,VALID,0.801258,
2007-01-09, 10:27:00,VALID,916.765,VALID,0,VALID,97.1913,VALID,0.101885,VALID,17.1416,VALID,14,VALID,0.725195,
2007-01-09, 10:28:00,VALID,916.768,VALID,0,VALID,97.265,VALID,0.118866,VALID,17.1614,VALID,357,VALID,0.991235,
2007-01-09, 10:29:00,VALID,916.774,VALID,0,VALID,96.9039,VALID,0.101885,VALID,17.2253,VALID,349,VALID,0.943788,
2007-01-09, 10:30:00,VALID,916.768,VALID,0,VALID,96.366,VALID,0.0849042,VALID,17.3165,VALID,346,VALID,0.886052,
2007-01-09, 10:31:00,VALID,916.775,VALID,0,VALID,95.8103,VALID,0.101885,VALID,17.4066,VALID,346,VALID,0.781851,
2007-01-09, 10:32:00,VALID,916.786,VALID,0,VALID,95.1173,VALID,-0.0339617,VALID,17.4533,VALID,346,VALID,0.474019,
2007-01-09, 10:33:00,VALID,916.791,VALID,0,VALID,94.7066,VALID,-0.101885,VALID,17.441,VALID,346,VALID,0.0865091,
2007-01-09, 10:34:00,VALID,916.806,VALID,0,VALID,94.2895,VALID,-0.101885,VALID,17.3572,VALID,346,VALID,0,
2007-01-09, 10:35:00,VALID,916.817,VALID,0,VALID,94.2628,VALID,-0.101885,VALID,17.2378,VALID,346,VALID,0,
2007-01-09, 10:36:00,VALID,916.811,VALID,0,VALID,94.718,VALID,-0.0849042,VALID,17.1896,VALID,346,VALID,0.215199,